カタログに戻る

FENGYUN 1C DEB

運用中SSO
NORAD 31068·DEBRIS·🇨🇳 China

打ち上げ May 10, 1999 から Taiyuan Satellite Launch Center

Loading…

次のパス (今後24時間)

TLE

最新Source: Space-Track

元期: Sep 11, 2026, 03:52 UTC

1 31068U 99025BFN 26254.16161972  .00000293  00000-0  16838-3 0  9998
2 31068  98.6592 230.5556 0165595  65.5823 296.2526 14.09393570    19

AllMySatでFENGYUN 1C DEBをリアルタイム追跡

Download on the App Store